Погода в Родной Долине

Россия / Омская область     54°51′40″N   71°44′38″E
темп.,
°C
ветер,
м/с
пор.,
м/с
влажн.,
%
обл.,
%
осадки,
мм/ч
давл.,
гПа
погр.,
м
16 мая, вс
вс1600:00+19з6155374 0.1 1018337
03:00+18з512560 0.0 1017213
06:00+17з413644 0.0 1016254
09:00+23зсз584430 0.0 1015331
12:00+29сз7113087 0.0 10161867
15:00+30сз81327100 0.0 10153421
18:00+30ссз8123056 0.0 10142822
21:00+24ссз494858 0.0 1016155
17 мая, пн
пн1700:00+20вюв226167 0.0 101720
03:00+18ююв116660 0.1 101712
06:00+18ююз36678 0.3 1018104
09:00+25зюз574466 0.0 1017421
12:00+30з68255 0.0 10161220
15:00+32сз810205 0.0 10153388
18:00+31сз613205 0.0 10143663
21:00+25з44330 0.0 101349
18 мая, вт
вт1800:00+23з512421 0.0 1013210
03:00+20з512455 0.0 1012207
06:00+18сз36565 0.0 1012107
09:00+24сз464398 0.0 1011493
12:00+26зсз4637100 0.0 10111392
15:00+29з5929100 0.0 10093786
18:00+25ссз5840100 0.1 1007833
21:00+17ююв2277100 1.7 1010174
19 мая, ср
ср1900:00+15с8127495 2.7 1011551
03:00+12с71177100 0.0 10131003
06:00+11ссв71277100 0.0 1016949
09:00+12ссв9116126 0.0 10181120
12:00+16ссв79405 0.0 10191657
15:00+18ссв78310 0.0 10201835
18:00+18с68335 0.0 10202012
21:00+14с36485 0.0 1021117
20 мая, чт
чт2000:00+11с48515 0.0 1022156
03:00+9ссв336075 0.0 102341
06:00+9ссз22627 0.0 102442
09:00+14сз3445100 0.0 1024537
12:00+18сз453587 0.0 10231532
15:00+21сз573196 0.0 10211936
18:00+22зсз683199 0.0 10201985
21:00+18з3446100 0.0 102048